Hourly Weather Agros

Today, 7 March, Sunday

Time Temperature Precipitation Wind Pressure Humidity
00:00 +7°C° 0 mm 1 mps 697 mmHg 78%
01:00 +7°C° 0 mm 1 mps 697 mmHg 76%
02:00 +7°C° 0 mm 1 mps 696 mmHg 75%
03:00 +7°C° 0 mm 1 mps 696 mmHg 76%
04:00 +6°C° 0 mm 1 mps 696 mmHg 76%
05:00 +6°C° 0 mm 1 mps 696 mmHg 76%
06:00 +8°C° 0 mm 1 mps 696 mmHg 71%
07:00 +9°C° 0 mm 1 mps 696 mmHg 66%
08:00 +11°C° 0 mm 1 mps 697 mmHg 61%
09:00 +12°C° 0 mm 2 mps 697 mmHg 59%
10:00 +12°C° 0 mm 3 mps 697 mmHg 57%
11:00 +13°C° 0 mm 3 mps 697 mmHg 55%
12:00 +13°C° 0 mm 3 mps 697 mmHg 56%
13:00 +14°C° 0 mm 3 mps 696 mmHg 57%
14:00 +14°C° 0 mm 4 mps 696 mmHg 57%
15:00 +13°C° 0 mm 3 mps 696 mmHg 61%
16:00 +12°C° 0 mm 3 mps 695 mmHg 65%
17:00 +11°C° 0 mm 3 mps 695 mmHg 69%
18:00 +10°C° 0 mm 3 mps 695 mmHg 74%
19:00 +9°C° 0 mm 2 mps 695 mmHg 79%
20:00 +8°C° 0 mm 2 mps 694 mmHg 84%
21:00 +8°C° 0 mm 2 mps 694 mmHg 85%
22:00 +7°C° 0 mm 2 mps 694 mmHg 85%
23:00 +7°C° 0 mm 2 mps 694 mmHg 86%

Tomorrow, 8 March, Monday

Time Temperature Precipitation Wind Pressure Humidity
00:00 +7°C° 0 mm 2 mps 693 mmHg 86%
01:00 +7°C° 0 mm 2 mps 693 mmHg 86%
02:00 +7°C° 0 mm 2 mps 693 mmHg 86%
03:00 +7°C° 0 mm 2 mps 693 mmHg 86%
04:00 +7°C° 0 mm 2 mps 693 mmHg 86%
05:00 +7°C° 0 mm 2 mps 693 mmHg 86%
06:00 +8°C° 0 mm 3 mps 693 mmHg 82%
07:00 +9°C° 0 mm 3 mps 693 mmHg 79%
08:00 +10°C° 0 mm 3 mps 694 mmHg 75%
09:00 +12°C° 0 mm 4 mps 694 mmHg 66%
10:00 +13°C° 0 mm 4 mps 695 mmHg 57%
11:00 +15°C° 0 mm 5 mps 695 mmHg 48%
12:00 +15°C° 0 mm 6 mps 695 mmHg 48%
13:00 +14°C° 0 mm 6 mps 695 mmHg 47%
14:00 +14°C° 0 mm 7 mps 694 mmHg 47%
15:00 +13°C° 0 mm 6 mps 694 mmHg 47%
16:00 +12°C° 0 mm 5 mps 694 mmHg 47%
17:00 +11°C° 0 mm 4 mps 694 mmHg 47%
18:00 +10°C° 0 mm 3 mps 694 mmHg 51%
19:00 +9°C° 0 mm 3 mps 694 mmHg 55%
20:00 +7°C° 0 mm 2 mps 694 mmHg 58%
21:00 +7°C° 0 mm 2 mps 693 mmHg 57%
22:00 +7°C° 0 mm 2 mps 693 mmHg 56%
23:00 +6°C° 0 mm 2 mps 693 mmHg 55%

Day after tomorrow, 9 March, Tuesday

Time Temperature Precipitation Wind Pressure Humidity
00:00 +6°C° 0 mm 2 mps 693 mmHg 56%
01:00 +6°C° 0 mm 2 mps 693 mmHg 57%
02:00 +6°C° 0 mm 2 mps 693 mmHg 59%
03:00 +6°C° 0 mm 2 mps 693 mmHg 60%
04:00 +6°C° 0 mm 2 mps 693 mmHg 62%
05:00 +6°C° 0 mm 2 mps 693 mmHg 63%
06:00 +8°C° 0 mm 2 mps 693 mmHg 60%
07:00 +9°C° 0 mm 2 mps 694 mmHg 57%
08:00 +12°C° 0 mm 2 mps 695 mmHg 54%
09:00 +13°C° 0 mm 2 mps 695 mmHg 51%
10:00 +14°C° 0 mm 2 mps 695 mmHg 48%
11:00 +15°C° 0 mm 2 mps 696 mmHg 46%
12:00 +15°C° 0 mm 2 mps 695 mmHg 46%
13:00 +15°C° 0 mm 2 mps 695 mmHg 46%
14:00 +16°C° 0 mm 2 mps 695 mmHg 47%
15:00 +15°C° 0 mm 2 mps 695 mmHg 52%
16:00 +14°C° 0 mm 1 mps 694 mmHg 57%
17:00 +13°C° 0 mm 1 mps 694 mmHg 62%
18:00 +12°C° 0 mm 1 mps 694 mmHg 68%
19:00 +11°C° 0 mm 1 mps 694 mmHg 73%
20:00 +9°C° 0 mm 1 mps 694 mmHg 79%
21:00 +9°C° 0 mm 1 mps 694 mmHg 77%
22:00 +9°C° 0 mm 1 mps 694 mmHg 74%
23:00 +9°C° 0 mm 1 mps 694 mmHg 72%

10 March, Wednesday

Time Temperature Precipitation Wind Pressure Humidity
00:00 +9°C° 0 mm 1 mps 694 mmHg 70%
01:00 +9°C° 0 mm 1 mps 693 mmHg 69%
02:00 +9°C° 0 mm 1 mps 693 mmHg 67%
03:00 +8°C° 0 mm 2 mps 693 mmHg 68%
04:00 +8°C° 0 mm 2 mps 693 mmHg 68%
05:00 +7°C° 0 mm 2 mps 692 mmHg 69%
06:00 +9°C° 0 mm 3 mps 693 mmHg 65%
07:00 +10°C° 0 mm 3 mps 693 mmHg 62%
08:00 +12°C° 0 mm 3 mps 693 mmHg 59%
09:00 +14°C° 0 mm 4 mps 694 mmHg 54%
10:00 +15°C° 0 mm 4 mps 694 mmHg 49%
11:00 +18°C° 0 mm 4 mps 694 mmHg 44%
12:00 +18°C° 0 mm 4 mps 693 mmHg 44%
13:00 +19°C° 0 mm 4 mps 693 mmHg 44%
14:00 +19°C° 0 mm 4 mps 693 mmHg 43%
15:00 +18°C° 0 mm 4 mps 692 mmHg 49%
16:00 +15°C° 0 mm 4 mps 691 mmHg 55%
17:00 +14°C° 0 mm 3 mps 691 mmHg 61%
18:00 +13°C° 0 mm 3 mps 691 mmHg 67%
19:00 +12°C° 0 mm 2 mps 690 mmHg 73%
20:00 +11°C° 0 mm 1 mps 690 mmHg 78%
21:00 +11°C° 0 mm 1 mps 690 mmHg 76%
22:00 +11°C° 0 mm 1 mps 690 mmHg 73%
23:00 +10°C° 0 mm 1 mps 690 mmHg 70%

11 March, Thursday

Time Temperature Precipitation Wind Pressure Humidity
00:00 +10°C° 0 mm 1 mps 690 mmHg 72%
01:00 +10°C° 0 mm 1 mps 690 mmHg 74%
02:00 +10°C° 0 mm 1 mps 690 mmHg 77%
03:00 +9°C° 0 mm 1 mps 690 mmHg 78%
04:00 +8°C° 0 mm 2 mps 690 mmHg 80%
05:00 +8°C° 0 mm 2 mps 690 mmHg 81%
06:00 +9°C° 0 mm 2 mps 690 mmHg 76%
07:00 +12°C° 0 mm 2 mps 690 mmHg 70%
08:00 +13°C° 0 mm 2 mps 691 mmHg 65%
09:00 +13°C° 0 mm 4 mps 691 mmHg 62%
10:00 +14°C° 0 mm 5 mps 691 mmHg 60%
11:00 +15°C° 0 mm 7 mps 691 mmHg 58%
12:00 +15°C° 0 mm 8 mps 691 mmHg 59%
13:00 +13°C° 0 mm 10 mps 690 mmHg 60%
14:00 +13°C° 0 mm 11 mps 690 mmHg 62%
15:00 +12°C° 0 mm 11 mps 690 mmHg 65%
16:00 +11°C° 0 mm 11 mps 689 mmHg 69%
17:00 +9°C° 0 mm 11 mps 689 mmHg 73%
18:00 +8°C° 0.1 mm 10 mps 689 mmHg 73%
19:00 +9°C° 0.1 mm 8 mps 690 mmHg 72%
20:00 +8°C° 0.1 mm 7 mps 690 mmHg 72%
21:00 +7°C° 0 mm 6 mps 691 mmHg 71%
22:00 +6°C° 0 mm 4 mps 691 mmHg 70%
23:00 +5°C° 0 mm 3 mps 691 mmHg 69%

12 March, Friday

Time Temperature Precipitation Wind Pressure Humidity
00:00 +5°C° 0 mm 4 mps 692 mmHg 65%
01:00 +4°C° 0 mm 4 mps 692 mmHg 61%
02:00 +2°C° 0 mm 5 mps 693 mmHg 57%
03:00 +3°C° 0 mm 4 mps 693 mmHg 58%
04:00 +2°C° 0 mm 3 mps 693 mmHg 59%
05:00 +2°C° 0 mm 3 mps 693 mmHg 60%
06:00 +4°C° 0 mm 2 mps 694 mmHg 55%
07:00 +5°C° 0 mm 2 mps 695 mmHg 49%
08:00 +7°C° 0 mm 1 mps 696 mmHg 43%
09:00 +8°C° 0 mm 2 mps 696 mmHg 41%
10:00 +9°C° 0 mm 2 mps 697 mmHg 38%
11:00 +10°C° 0 mm 2 mps 697 mmHg 36%
12:00 +12°C° 0 mm 2 mps 697 mmHg 38%
13:00 +12°C° 0 mm 2 mps 697 mmHg 40%
14:00 +12°C° 0 mm 3 mps 697 mmHg 42%
15:00 +12°C° 0 mm 2 mps 697 mmHg 44%
16:00 +10°C° 0 mm 2 mps 697 mmHg 45%
17:00 +9°C° 0 mm 2 mps 696 mmHg 47%
18:00 +9°C° 0 mm 1 mps 696 mmHg 52%
19:00 +7°C° 0 mm 1 mps 696 mmHg 57%
20:00 +5°C° 0 mm 0 mps 696 mmHg 62%
21:00 +5°C° 0 mm 0 mps 696 mmHg 62%
22:00 +5°C° 0 mm 1 mps 696 mmHg 61%
23:00 +5°C° 0 mm 1 mps 697 mmHg 61%
Show more